STARLINK-34584 (64697 NORAD) Tracking and Keplerian Element Data

This shows tracking and keplerian element data for the satellite.

Feedback or suggestion? Click here.




ElementValue
Catalog64697
NameSTARLINK-34584
Epoch Orbit2746
Epoch Day353.43950913
Epoch Year2025
RAAN156.6495
Inclination70
Eccentricity0.0003249
Argument of Perigee272.5237
Mean Anonmoly87.555
Mean Motion14.9832648
Decay Rate6.06E-05
L11 64697U 25142B 25353.43950913 .00006060 00000+0 51528-3 0 9993
L22 64697 70.0000 156.6495 0003249 272.5237 87.5550 14.98326480 27467



Live tracking and technical data element details for STARLINK-34584 (NORAD 64697). STARLINK-34584 can be tracked NOW for your location showing map with azimuth and elevation plus other details from your city location.







IsCatalogInMostPopularTable: catalog: 64697, numindb: 3
Update: records affected: 1



GetName: 64697 STARLINK-34584

Hit Count: updated at: Sat, 07 Feb 2026 08:32:02 GMT